RH
38 35 46 51 46 44 31 18 14 18 31 30 17 11 11 13 31 52 50 40 32 29 27 25 24 23 22 22 19 23 26 25 20 24 23 22 21 18 17 16 15 15 15
34 34 38 53 48 43 36 23 14 15 28 27 15 9 9 16 39 47 40 32 31 29 25 24 23 21 21 21 18 21 26 23 24 23 23 22 19 18 16 15 15 15 14
44 30 34 45 47 41 36 27 18 15 24 23 10 11 17 23 33 35 32 32 28 23 21 19 23 26 24 24 20 21 21 22 23 22 22 20 17 17 16 15 15 14 15
46 30 31 36 40 41 34 26 21 19 21 17 11 24 30 31 31 32 30 26 21 20 19 21 24 25 23 25 25 21 18 17 18 21 22 18 17 16 15 14 14 15 15
51 31 29 34 34 34 34 27 20 22 21 15 16 26 32 33 34 30 21 21 21 21 19 18 21 24 22 26 26 24 15 14 14 18 16 14 11 15 15 14 14 14 14
52 40 35 33 33 32 30 27 22 21 22 20 17 22 29 30 29 23 20 20 22 21 18 18 19 22 23 26 29 25 14 13 17 19 19 17 16 16 15 14 13 14 14
52 44 41 38 33 31 28 25 23 22 21 22 19 22 21 20 20 17 17 19 22 18 18 19 20 22 23 27 29 22 14 14 16 16 18 16 16 16 15 15 15 14 14
58 47 44 42 37 33 26 25 22 23 22 21 23 18 15 16 17 14 17 20 21 18 18 18 20 24 26 28 25 19 15 16 16 17 14 16 15 16 15 14 14 14 14
55 46 47 45 41 36 27 24 23 23 22 22 23 20 15 16 15 14 18 22 21 19 19 21 23 27 30 31 27 21 17 20 18 16 17 15 16 16 15 15 15 14 16
47 45 44 45 44 38 29 24 23 23 22 24 26 21 15 18 16 16 20 23 21 19 21 22 26 29 32 27 27 21 18 21 18 19 16 16 16 16 16 15 15 14 14
49 45 46 46 43 41 32 26 23 23 23 24 25 24 18 19 18 18 22 23 20 20 23 25 30 32 32 27 27 21 19 21 18 19 16 16 15 16 16 15 15 14 14
57 54 48 46 44 41 36 31 26 24 23 24 26 23 20 19 18 19 22 21 18 20 26 30 36 36 31 27 28 23 19 21 18 18 15 16 16 16 16 16 15 15 14
65 58 56 49 44 41 37 33 33 28 23 24 25 22 24 21 18 19 22 21 21 23 29 35 40 38 30 28 26 23 21 19 16 17 15 16 16 16 17 16 16 15 15
73 67 58 52 46 42 39 34 33 32 26 23 27 28 33 23 18 19 21 20 23 27 33 38 41 35 32 33 30 25 24 18 15 15 16 16 17 16 17 17 16 16 15
73 71 64 56 50 44 39 37 33 31 30 27 25 32 35 29 21 20 21 22 26 30 35 40 41 38 35 35 31 25 23 18 14 14 14 16 17 18 17 17 16 16 16
65 67 66 62 57 50 43 39 35 34 34 30 26 35 44 39 27 21 23 26 29 34 38 42 43 41 41 34 33 27 23 20 14 12 10 15 16 17 18 17 17 16 16
46 62 65 58 58 57 50 45 42 41 38 34 33 34 46 40 31 25 24 27 31 38 40 40 44 43 42 38 31 28 25 22 15 11 10 8 9 9 13 17 15 17 17
39 55 59 61 65 62 57 51 49 45 44 43 40 39 36 33 28 25 26 30 33 40 45 44 43 42 40 39 36 30 27 27 22 15 14 11 10 10 8 9 9 12 14
39 54 65 70 73 68 63 60 58 55 53 49 50 43 39 31 30 26 23 29 32 39 46 48 45 45 42 40 40 37 30 28 27 18 16 14 12 12 11 9 8 8 12
40 52 74 73 78 77 78 73 72 67 63 57 56 51 44 36 34 31 24 25 32 39 48 53 55 54 46 42 41 41 38 31 29 25 17 14 12 11 12 10 11 11 9
42 55 69 75 73 75 76 77 74 76 75 72 64 56 50 42 33 29 27 23 26 35 45 54 58 58 57 45 38 40 40 36 30 31 23 17 13 12 11 12 12 13 12
50 62 66 78 96 83 76 76 73 76 79 78 71 65 60 54 47 38 31 24 24 26 40 49 58 61 61 51 42 41 43 40 35 28 27 18 14 12 11 10 11 11 12
55 54 65 72 75 81 81 80 77 75 76 78 76 75 60 62 62 56 47 34 28 27 28 42 52 61 62 62 54 42 43 42 39 32 29 26 18 15 12 10 10 10 11
41 50 53 64 76 74 67 77 76 73 74 78 75 80 75 66 65 63 61 57 41 36 28 30 44 57 63 62 62 56 50 46 41 35 33 34 27 20 17 15 11 10 10
34 48 54 60 64 70 72 65 72 76 74 81 81 79 72 60 68 67 63 66 62 49 43 37 35 45 59 64 66 64 58 61 54 38 34 31 33 27 24 21 19 13 11
51 51 49 48 62 68 72 68 63 68 72 71 74 73 70 60 57 71 65 63 64 63 55 44 43 44 50 58 67 68 64 61 65 62 48 37 30 31 27 27 24 21 14